North Vernon, Indiana, United States (47265)
Lat: 39.01N, Lon: 85.62W
Wx Zone: INZ072
Local Info
Past Weather Observations for Saturday, August 16, 2014

NOTE: This archive is for the closest National Weather Service station to North Vernon. Information may differ from the station used for current weather conditions.

Click here for Long-term Archive

Time Weather Temperature Dewpoint Humidity Pressure Winds Precip Visibility
23:53
Overcast
Fog And Mist
70°F / 21°C 66°F / 19°C 88% 30.01 in
(1016 mb)
SSE 3.5 mph
(SSE 6 kph)
- 5SM
22:53
Overcast
Fog And Mist
70°F / 21°C 66°F / 19°C 88% 30.01 in
(1016 mb)
SW 4.6 mph
(SW 7 kph)
- 5SM
21:53
Overcast
Fog And Mist
70°F / 21°C 66°F / 19°C 88% 30.01 in
(1016 mb)
S 5.8 mph
(S 9 kph)
- 6SM
20:53
Partly Cloudy
Fog And Mist
70°F / 21°C 66°F / 19°C 88% 29.98 in
(1015 mb)
S 3.5 mph
(S 6 kph)
- 5SM
19:53
Partly Cloudy
Fog And Mist
72°F / 22°C 68°F / 20°C 88% 29.98 in
(1015 mb)
SSE 5.8 mph
(SSE 9 kph)
- 6SM
18:53
Partly Cloudy
73°F / 23°C 68°F / 20°C 83% 29.98 in
(1015 mb)
S 3.5 mph
(S 6 kph)
- 10SM
17:53
Mostly Cloudy
75°F / 24°C 68°F / 20°C 78% 29.98 in
(1015 mb)
S 5.8 mph
(S 9 kph)
- 10SM
16:53
Overcast
75°F / 24°C 68°F / 20°C 78% 29.98 in
(1015 mb)
SSE 4.6 mph
(SSE 7 kph)
- 10SM
15:53
Overcast
73°F / 23°C 68°F / 20°C 83% 30.01 in
(1016 mb)
Calm - 10SM
14:53
Overcast
73°F / 23°C 68°F / 20°C 83% 30.01 in
(1016 mb)
SSE 4.6 mph
(SSE 7 kph)
0.03 in
(0.76 mm)
8SM
14:44
Overcast
Light Rain
73°F / 23°C 68°F / 20°C 83% 30.01 in
(1016 mb)
SW 6.9 mph
(SW 11 kph)
0.03 in
(0.76 mm)
6SM
14:34
Overcast
Light Rain
73°F / 23°C 66°F / 19°C 78% 30.01 in
(1016 mb)
SW 5.8 mph
(SW 9 kph)
0.03 in
(0.76 mm)
2SM
13:53
Overcast
73°F / 23°C 66°F / 19°C 78% 30.01 in
(1016 mb)
SW 5.8 mph
(SW 9 kph)
0.00 in
(0.00 mm)
10SM
12:53
Overcast
72°F / 22°C 64°F / 18°C 78% 30.01 in
(1016 mb)
SW 12.7 mph
(SW 20 kph)
0.02 in
(0.51 mm)
10SM
11:53
Overcast
Light Rain
70°F / 21°C 63°F / 17°C 78% 30.04 in
(1017 mb)
Calm 0.01 in
(0.25 mm)
7SM
10:53
Overcast
70°F / 21°C 55°F / 13°C 60% 30.04 in
(1017 mb)
S 8.1 mph
(S 13 kph)
- 10SM
09:53
Overcast
66°F / 19°C 57°F / 14°C 73% 30.01 in
(1016 mb)
SSE 3.5 mph
(SSE 6 kph)
- 10SM
08:53
Overcast
64°F / 18°C 55°F / 13°C 73% 30.01 in
(1016 mb)
SSE 5.8 mph
(SSE 9 kph)
0.00 in
(0.00 mm)
10SM
07:53
Overcast
64°F / 18°C 54°F / 12°C 68% 30.01 in
(1016 mb)
SSE 3.5 mph
(SSE 6 kph)
- 10SM
06:53
Overcast
61°F / 16°C 54°F / 12°C 77% 30.01 in
(1016 mb)
SE 3.5 mph
(SE 6 kph)
- 10SM
05:53
Clear
55°F / 13°C 52°F / 11°C 88% 30.01 in
(1016 mb)
SE 3.5 mph
(SE 6 kph)
- 10SM
04:53
Clear
55°F / 13°C 52°F / 11°C 88% 30.01 in
(1016 mb)
SE 4.6 mph
(SE 7 kph)
- 10SM
03:53
Clear
55°F / 13°C 52°F / 11°C 88% 29.98 in
(1015 mb)
SE 3.5 mph
(SE 6 kph)
- 10SM
02:53
Clear
55°F / 13°C 52°F / 11°C 88% 30.01 in
(1016 mb)
Calm - 10SM
01:53
Clear
55°F / 13°C 52°F / 11°C 88% 30.01 in
(1016 mb)
Calm - 10SM
00:53
Clear
55°F / 13°C 54°F / 12°C 94% 30.01 in
(1016 mb)
ESE 4.6 mph
(ESE 7 kph)
- 10SM
Time Weather Temperature Dewpoint Humidity Pressure Winds Precip Visibility


Weather for websites

WeatherForYou.com, LLC is not responsible for any damages or problems caused by this service. Current weather conditions are obtained from the closest station including government and personal stations which may have varying degrees of accuracy. Weather forecasts are derived from the NOAA NDFD. Like all things, this site belongs to Jesus Christ... He just trusts me to maintain it. If you have any questions or comments email webmaster@weatherforyou.com

Copyright © 2014, WeatherForYou.com LLC. All rights reserved.